Location: Unspecified
(0.0000°N, 0.0000°E)
Time: 17:50:52
(UTC+00:00)

Explorer 11/Cluster Stage 4 - All Passes

Search period start: 18 January 2020 00:00
Search period end: 28 January 2020 00:00
Orbit: 467 x 1259 km, 28.8° (Epoch: 18 January)

Date Brightness Start Highest point End Pass type
(mag) Time Alt. Az. Time Alt. Az. Time Alt. Az.
18 Jan - 00:11:45 10° NNW 00:14:44 24° NNE 00:17:52 10° E night (unlit)
18 Jan - 01:59:21 10° W 02:02:53 37° SSW 02:06:58 10° SE night (unlit)
18 Jan - 09:23:13 10° S 09:24:55 11° SSE 09:26:39 10° SE daylight
18 Jan - 11:08:11 10° SSW 11:15:12 32° SSE 11:22:14 10° E daylight
18 Jan - 12:56:32 10° WSW 13:04:53 90° SSE 13:12:34 10° ENE daylight
18 Jan - 14:47:34 10° W 14:54:14 29° NNW 15:00:11 10° NNE daylight
19 Jan - 00:00:56 10° NW 00:04:11 32° NNE 00:07:33 10° E night (unlit)
19 Jan - 01:49:08 10° W 01:52:22 28° SSW 01:55:59 10° SSE night (unlit)
19 Jan - 09:11:30 10° S 09:14:18 12° SSE 09:17:11 10° SE daylight
19 Jan - 10:57:08 10° SW 11:04:22 36° SSE 11:11:45 10° E daylight
19 Jan - 12:45:40 10° WSW 12:53:59 79° NNW 13:01:48 10° NE daylight
19 Jan - 14:37:03 10° W 14:43:26 26° NNW 14:49:14 10° NNE daylight
19 Jan - 23:50:09 10° NW 23:53:38 43° NNE 23:57:09 10° ESE night (unlit)
20 Jan - 01:39:01 10° WSW 01:41:51 21° SSW 01:44:56 10° SSE night (unlit)
20 Jan - 09:00:08 10° S 09:03:39 14° SSE 09:07:19 10° SE daylight
20 Jan - 10:46:08 10° SW 10:53:30 42° SSE 11:01:11 10° E daylight
20 Jan - 12:34:52 10° WSW 12:43:04 68° NNW 12:50:58 10° NE daylight
20 Jan - 14:26:38 10° WNW 14:32:39 23° NNW 14:38:13 10° NNE daylight
20 Jan - 23:39:27 10° NW 23:43:06 62° NNE 23:46:42 10° ESE night (unlit)
21 Jan - 01:29:05 10° WSW 01:31:21 15° SSW 01:33:43 10° SSE night (unlit)
21 Jan - 08:48:55 10° S 08:52:58 15° SSE 08:57:16 10° ESE daylight
21 Jan - 10:35:12 10° SW 10:42:37 48° SSE 10:50:32 10° ENE daylight
21 Jan - 12:24:07 10° WSW 12:32:10 59° NNW 12:40:04 10° NE daylight
21 Jan - 14:16:18 10° WNW 14:21:53 20° NNW 14:27:09 10° NNE daylight
21 Jan - 21:42:15 10° N 21:44:06 13° NNE 21:45:52 10° NE night (unlit)
21 Jan - 23:28:47 10° WNW 23:32:34 88° NNE 23:36:11 10° ESE night (unlit)
22 Jan - 01:19:32 10° SW 01:20:51 12° SSW 01:22:11 10° S night (unlit)
22 Jan - 08:37:49 10° S 08:42:15 17° SSE 08:47:05 10° ESE daylight
22 Jan - 10:24:19 10° SW 10:31:44 56° SSE 10:39:48 10° ENE daylight
22 Jan - 12:13:28 10° WSW 12:21:16 51° NNW 12:29:06 10° NE daylight
22 Jan - 14:06:04 10° WNW 14:11:08 17° NNW 14:16:00 10° NNE daylight
22 Jan - 21:30:44 10° NNW 21:33:37 17° NNE 21:36:15 10° ENE night (unlit)
22 Jan - 23:18:10 10° WNW 23:22:02 66° SSW 23:25:37 10° SE night (unlit)
23 Jan - 08:26:47 10° SSW 08:31:30 20° SSE 08:36:46 10° ESE daylight
23 Jan - 10:13:30 10° SW 10:20:50 65° SSE 10:29:00 10° ENE daylight
23 Jan - 12:02:52 10° W 12:10:23 44° NNW 12:18:06 10° NE daylight
23 Jan - 13:55:59 10° WNW 14:00:26 15° NNW 14:04:46 10° N daylight
23 Jan - 21:19:28 10° NNW 21:23:07 23° NNE 21:26:19 10° E night (unlit)
23 Jan - 23:07:36 10° WNW 23:11:28 48° SSW 23:15:00 10° SE night (unlit)
24 Jan - 08:15:49 10° SSW 08:20:45 22° SSE 08:26:22 10° E daylight
24 Jan - 10:02:45 10° SW 10:09:57 75° SSE 10:18:09 10° ENE daylight
24 Jan - 11:52:22 10° W 11:59:32 38° NNW 12:07:01 10° NE daylight
24 Jan - 13:46:04 10° NW 13:49:46 14° NNW 13:53:26 10° N daylight
24 Jan - 21:08:19 10° NW 21:12:36 30° NNE 21:16:14 10° E night (unlit)
24 Jan - 22:57:05 10° W 23:00:55 36° SSW 23:04:20 10° SE night (unlit)
25 Jan - 08:04:54 10° SSW 08:10:00 25° SSE 08:15:52 10° E daylight
25 Jan - 09:52:03 10° WSW 09:59:04 87° SSE 10:07:14 10° ENE daylight
25 Jan - 11:41:57 10° W 11:48:43 32° NNW 11:55:54 10° NNE daylight
25 Jan - 13:36:24 10° NW 13:39:08 12° NNW 13:41:53 10° N daylight
25 Jan - 19:11:08 10° N 19:12:42 11° NNE 19:14:12 10° NE visible
25 Jan - 20:57:15 10° NW 21:02:04 40° NNE 21:06:01 10° E visible
25 Jan - 22:46:37 10° W 22:50:19 28° SSW 22:53:37 10° SSE night (unlit)
26 Jan - 07:54:04 10° SSW 07:59:14 29° SSE 08:05:19 10° E daylight
26 Jan - 09:41:26 10° WSW 09:48:13 81° NNW 09:56:15 10° NE daylight
26 Jan - 11:31:37 10° W 11:37:56 28° NNW 11:44:41 10° NNE daylight
26 Jan - 13:27:23 10° NNW 13:28:32 10° NNW 13:29:42 10° N daylight
26 Jan - 18:59:00 10° NNW 19:02:13 14° NNE 19:05:06 10° NE visible
26 Jan - 20:46:14 10° NW 20:51:29 53° NNE 20:55:44 10° ESE visible
26 Jan - 22:36:13 10° W 22:39:43 22° SSW 22:42:50 10° SSE night (unlit)
27 Jan - 07:43:16 10° SSW 07:48:27 33° SSE 07:54:41 10° E daylight
27 Jan - 09:30:52 10° WSW 09:37:24 68° NNW 09:45:13 10° NE daylight
27 Jan - 11:21:24 10° WNW 11:27:12 24° NNW 11:33:26 10° NNE daylight
27 Jan - 18:47:23 10° NNW 18:51:40 18° NNE 18:55:26 10° ENE visible
27 Jan - 20:35:16 10° NW 20:40:53 70° NNE 20:45:21 10° ESE visible
27 Jan - 22:25:54 10° WSW 22:29:06 18° SSW 22:31:58 10° SSE night (unlit)
